#timestamp,LO_Frequency,Hit 
1500724815.8,286046823.6,N
1500724835.7,286046826.0,N
1500724855.5,286046830.4,N
1500724875.3,286046839.7,N
1500724895.2,286046849.5,N
1500724915.9,286046847.3,N
1500724935.7,286046857.6,N
1500724955.6,286046859.9,N
1500724975.4,286046865.9,N
1500724995.2,286046867.3,N
1500725015.1,286046865.9,N
1500725016.0,286046865.9,N
1500725035.8,286046864.4,N
1500725055.6,286046868.8,N
1500725075.5,286046868.5,N
1500725095.3,286046868.5,N
1500725115.1,286046876.6,N
1500725135.9,286046874.4,N
1500725155.7,286046870.9,N
1500725175.5,286046871.2,N
1500725195.4,286046882.6,N
1500725215.2,286046883.7,N
1500725235.0,286046882.7,N
1500725235.9,286046882.7,N
1500725255.7,286046880.8,N
1500725275.6,286046879.5,N
1500725295.4,286046878.7,N
1500725315.2,286046890.2,N
1500725335.1,286046893.6,N
1500725336.0,286046893.6,N
1500725355.8,286046897.0,N
1500725375.6,286046891.5,N
1500725395.5,286046898.5,N
1500725415.3,286046900.3,N
1500725435.1,286046895.4,N
1500725455.9,286046903.6,N
1500725475.7,286046897.2,N
1500725495.5,286046904.1,N
1500725515.4,286046900.2,N
1500725535.2,286046894.6,N
1500725555.0,286046895.2,N
1500725555.9,286046895.2,N
1500725575.8,286046886.2,N
1500725595.6,286046883.8,N
1500725615.4,286046873.4,N
1500725635.3,286046870.4,N
1500725655.1,286046867.7,N
1500725656.0,286046867.7,N
1500725675.8,286046869.1,N
1500725695.7,286046876.9,N
1500725715.5,286046874.6,N
1500725735.3,286046869.3,N
1500725755.2,286046868.5,N
1500725775.9,286046865.5,N
1500725795.7,286046864.1,N
1500725815.6,286046861.2,N
1500725835.4,286046857.0,N
1500725855.2,286046851.7,N
1500725875.1,286046845.1,N
1500725876.0,286046845.1,N
1500725895.8,286046852.6,N
1500725915.6,286046855.4,N
1500725935.5,286046855.9,N
1500725955.3,286046853.5,N
1500725975.1,286046847.8,N
1500725995.8,286046850.7,N
1500726015.7,286046840.3,N
1500726035.5,286046833.8,N
1500726055.3,286046826.9,N
1500726075.2,286046825.7,N
1500726095.0,286046824.8,N
1500726095.9,286046824.8,N
1500726115.7,286046820.8,N
1500726135.6,286046818.9,N
1500726155.4,286046815.3,N
1500726175.2,286046808.2,N
1500726195.1,286046806.9,N
1500726196.0,286046806.9,N
1500726215.8,286046802.6,N
1500726235.6,286046799.3,N
1500726255.5,286046793.4,N
1500726275.3,286046792.1,N
1500726295.1,286046793.7,N
1500726315.2,286046794.9,N
1500726335.9,286046799.6,N
1500726355.7,286046794.2,N
1500726375.6,286046789.4,N
1500726395.4,286046785.5,N
1500726415.2,286046786.4,N
1500726435.1,286046781.7,N
1500726436.0,286046781.7,N
1500726455.8,286046779.9,N
1500726475.6,286046783.6,N
1500726495.5,286046777.5,N
1500726515.3,286046773.7,N
1500726535.1,286046769.8,N
1500726555.8,286046768.6,N
1500726575.7,286046766.6,N
1500726595.5,286046768.1,N
1500726615.3,286046771.5,N
1500726635.2,286046769.3,N
1500726655.0,286046771.5,N
1500726655.9,286046771.5,N
1500726675.7,286046783.0,N
1500726695.6,286046779.3,N
1500726715.4,286046775.3,N
1500726735.2,286046773.4,N
1500726755.1,286046784.0,N
1500726756.0,286046784.0,N
1500726775.8,286046776.9,N
1500726795.6,286046770.1,N
1500726815.5,286046776.8,N
1500726835.3,286046775.3,N
1500726855.1,286046772.8,N
1500726875.9,286046786.1,N
1500726895.7,286046792.0,N
1500726915.5,286046785.4,N
1500726935.4,286046777.6,N
1500726955.2,286046779.6,N
1500726975.0,286046786.2,N
1500726975.9,286046786.2,N
1500726995.8,286046796.1,N
1500727015.6,286046799.3,N
1500727035.4,286046803.1,N
1500727055.3,286046810.2,N
1500727075.1,286046819.7,N
1500727076.0,286046819.7,N
1500727095.8,286046824.6,N
1500727115.7,286046825.3,N
1500727135.5,286046820.3,N
1500727155.3,286046816.1,N
1500727175.2,286046812.0,N
1500727195.9,286046811.0,N
1500727215.7,286046811.4,N
1500727235.6,286046811.2,N
1500727255.4,286046805.5,N
1500727275.2,286046813.8,N
1500727295.1,286046819.5,N
1500727296.0,286046819.5,N
1500727315.8,286046826.4,N
1500727335.6,286046828.6,N
1500727355.5,286046834.7,N
1500727375.3,286046831.8,N
1500727395.1,286046834.9,N
1500727415.9,286046846.3,N
1500727435.7,286046845.3,N
1500727455.5,286046838.8,N
1500727475.3,286046838.1,N
1500727495.2,286046850.6,N
1500727515.0,286046843.8,N
1500727515.9,286046843.8,N
1500727535.7,286046835.1,N
1500727555.6,286046847.0,N
1500727575.4,286046851.7,N
1500727595.2,286046844.1,N
1500727615.1,286046838.4,N
1500727616.0,286046838.4,N
1500727635.8,286046834.0,N
1500727655.6,286046848.5,N
1500727675.5,286046850.6,N
1500727695.3,286046860.9,N
1500727715.1,286046858.8,N
1500727735.9,286046861.7,N
1500727755.7,286046864.5,N
1500727775.5,286046859.2,N
1500727795.4,286046857.8,N
1500727815.2,286046858.8,N
1500727835.0,286046851.3,N
1500727835.9,286046851.3,N
1500727855.8,286046866.9,N
1500727875.6,286046877.2,N
1500727895.4,286046864.5,N
1500727915.3,286046867.6,N
1500727935.1,286046867.7,N
1500727936.0,286046867.7,N
1500727955.8,286046874.2,N
1500727975.7,286046875.2,N
1500727995.5,286046876.3,N
1500728015.3,286046869.9,N
1500728035.2,286046870.9,N
1500728055.9,286046886.7,N
1500728075.7,286046892.4,N
1500728095.6,286046905.5,N
1500728115.4,286046900.9,N
1500728135.2,286046891.4,N
1500728155.0,286046898.1,N
1500728156.0,286046898.1,N
1500728175.8,286046895.1,N
1500728195.6,286046901.7,N
1500728215.4,286046894.1,N
1500728235.3,286046891.4,N
1500728255.1,286046884.7,N
1500728275.8,286046889.4,N
1500728295.7,286046894.5,N
1500728315.5,286046889.8,N
1500728335.3,286046878.1,N
1500728355.2,286046881.7,N
1500728375.9,286046895.1,N
1500728395.7,286046892.8,N
